[[{"header":{"parameterUnit":"m.s-1","parameterCategory":2,"la1":30.2991,"la2":30.254,"lo1":-89.0895,"lo2":-89.0444,"dy":0.0017,"dx":0.0017,"nx":28,"ny":28,"refTime":"2024-12-31T09:00:00:Z","depth":"0","parameterNumber":2,"parameterNumberName":"U-component_of_CURRENTS"},"data":[0,0,0,0,0,0,0,0,0,0,0,0,0,0,0,0,0,0,0,0,0,0,0,0,0,0,0,0,0,0,0,0,0,0,0,0,0,0,0,0,0,0,0,0,0,0,0,0,0,0,0,0,0,0,0,0,0,0,-0.3193,-0.3193,0,-0.325,-0.325,-0.3251,-0.3233,-0.3232,-0.3232,-0.3231,-0.3205,-0.3205,-0.3205,0,0,0,0,0,0,0,0,0,0,0,0,0,-0.3085,-0.3086,-0.3192,-0.3193,-0.3195,-0.325,-0.325,-0.3251,-0.3233,-0.3232,-0.3231,-0.323,-0.3205,-0.3205,-0.3205,0,0,0,0,0,0,0,0,0,0,0,0,0,-0.3132,-0.3087,-0.3192,-0.3195,-0.3196,-0.325,-0.325,-0.3251,-0.3234,-0.3232,-0.3231,-0.323,-0.3204,-0.3205,-0.3205,-0.3233,0,0,-0.3206,-0.3206,0,0,0,0,0,0,0,0,-0.313,-0.3136,-0.3194,-0.3195,-0.3196,-0.3236,-0.3203,-0.3242,-0.3234,-0.3216,-0.3231,-0.3229,-0.3211,-0.321,-0.322,-0.3232,-0.3231,-0.3206,-0.3206,-0.3206,-0.3206,0,0,0,0,0,0,0,-0.3126,-0.3134,-0.3212,-0.3195,-0.3197,-0.3199,-0.3204,-0.321,-0.3216,-0.3217,-0.3217,-0.3229,-0.321,-0.322,-0.322,-0.3231,-0.3206,-0.3206,-0.3206,-0.3206,-0.3234,-0.3235,0,0,0,0,0,0,-0.3127,-0.3131,-0.321,-0.3214,-0.3163,-0.3202,-0.3208,-0.3222,-0.3218,-0.3217,-0.323,-0.3228,-0.3221,-0.3219,-0.3218,-0.3228,-0.3206,-0.3206,-0.3206,-0.3234,-0.3235,-0.3235,0,0,0,0,0,0,-0.3125,-0.3134,-0.3208,-0.3176,-0.3186,-0.3206,-0.3222,-0.3224,-0.323,-0.3229,-0.3226,-0.3234,-0.322,-0.3218,-0.3225,-0.3228,-0.3206,-0.3206,-0.3233,-0.3234,-0.3235,-0.3263,0,0,0,0,0,0,-0.3121,-0.3132,-0.3133,-0.3176,-0.3188,-0.3237,-0.3224,-0.3226,-0.3241,-0.3239,-0.3232,-0.3228,-0.3218,-0.3225,-0.3225,-0.3228,-0.3206,-0.3232,-0.3234,-0.3235,-0.3261,-0.3265,-0.3268,0,0,0,0,0,-0.3117,-0.3127,-0.3133,-0.3142,-0.3192,-0.3238,-0.3244,-0.3251,-0.3243,-0.3249,-0.3246,-0.3228,-0.3232,-0.3226,-0.3226,-0.3229,-0.3232,-0.3233,-0.3235,-0.326,-0.3264,-0.3268,0,0,0,0,0,0,-0.3072,-0.3128,-0.3135,-0.3158,-0.3194,-0.3236,-0.3241,-0.3254,-0.326,-0.3252,-0.3243,-0.3241,-0.3249,-0.3239,-0.3232,-0.3241,-0.3226,-0.3228,-0.3245,-0.3249,-0.3252,-0.3245,-0.3207,0,0,0,0,0,-0.3067,-0.3087,-0.3143,-0.3155,-0.3177,-0.321,-0.3226,-0.324,-0.3259,-0.3259,-0.3259,-0.3255,-0.3259,-0.3252,-0.3257,-0.3264,-0.3244,-0.3264,-0.3267,-0.327,-0.3265,-0.3257,-0.3259,-0.324,-0.324,-0.324,0,0,-0.3049,-0.3084,-0.3092,-0.3147,-0.3171,-0.3207,-0.3214,-0.3246,-0.3266,-0.3256,-0.3269,-0.3272,-0.3266,-0.3275,-0.3276,-0.3262,-0.3262,-0.3272,-0.3274,-0.3267,-0.3259,-0.3261,-0.3262,-0.3241,-0.3241,-0.3241,0,0,-0.3035,-0.306,-0.3078,-0.3117,-0.3168,-0.3197,-0.3208,-0.3258,-0.3266,-0.3293,-0.3288,-0.3293,-0.33,-0.3296,-0.3294,-0.3318,-0.3287,-0.3318,-0.3319,-0.3313,-0.3314,-0.3315,-0.3278,-0.3275,-0.331,-0.3311,-0.3311,0,-0.3009,-0.3046,-0.3088,-0.3124,-0.3152,-0.3194,-0.3224,-0.325,-0.3291,-0.3302,-0.3295,-0.3316,-0.3308,-0.3318,-0.3321,-0.3324,-0.3306,-0.3305,-0.3317,-0.3317,-0.3318,-0.3279,-0.3276,-0.3312,-0.3312,-0.3312,-0.3312,0,-0.3021,-0.305,-0.3066,-0.3124,-0.316,-0.3193,-0.3248,-0.3275,-0.3291,-0.3315,-0.3336,-0.3337,-0.3342,-0.3344,-0.3336,-0.334,-0.3321,-0.3329,-0.3305,-0.3321,-0.3279,-0.3275,-0.3314,-0.3314,-0.3313,-0.3313,0,0,-0.2954,-0.3054,-0.3056,-0.3084,-0.3165,-0.3193,-0.3239,-0.329,-0.3307,-0.3339,-0.3353,-0.3366,-0.3367,-0.3364,-0.3361,-0.3351,-0.3332,-0.3337,-0.3336,-0.3295,-0.3294,-0.3205,-0.3192,-0.3344,-0.3344,-0.3344,-0.3258,0,-0.2944,-0.3003,-0.3062,-0.3105,-0.3139,-0.3204,-0.3242,-0.3291,-0.3323,-0.3347,-0.336,-0.337,-0.3375,-0.337,-0.3368,-0.3348,-0.3325,-0.3352,-0.3287,-0.3284,-0.3201,-0.3186,-0.3055,-0.2961,-0.3254,-0.3253,-0.3253,0,-0.2928,-0.2974,-0.3019,-0.3101,-0.3121,-0.3151,-0.3213,-0.3256,-0.3312,-0.3336,-0.3362,-0.3375,-0.3375,-0.3371,-0.3343,-0.3362,-0.3324,-0.3303,-0.33,-0.3204,-0.3189,-0.2996,-0.2943,-0.2917,-0.3246,-0.3247,-0.3247,0,-0.2845,-0.2936,-0.2965,-0.2994,-0.3097,-0.3119,-0.3166,-0.3237,-0.3271,-0.3318,-0.3339,-0.3359,-0.3354,-0.3337,-0.3304,-0.3321,-0.3257,-0.3275,-0.3156,-0.3149,-0.3015,-0.2995,-0.2923,-0.3238,-0.3238,-0.3239,-0.3239,0,-0.2805,-0.2822,-0.2924,-0.2938,-0.2967,-0.3059,-0.309,-0.3146,-0.3218,-0.3242,-0.3314,-0.3326,-0.3347,-0.3326,-0.3294,-0.3202,-0.3247,-0.314,-0.312,-0.3019,-0.3002,-0.2956,-0.2986,-0.3235,-0.3236,-0.3237,-0.3237,0,-0.2695,-0.2771,-0.2803,-0.29,-0.2926,-0.2936,-0.3037,-0.3059,-0.3151,-0.3182,-0.3195,-0.3284,-0.3259,-0.3257,-0.3211,-0.3168,-0.3037,-0.3054,-0.2917,-0.2882,-0.2743,-0.278,-0.2678,-0.2601,-0.2901,-0.2898,-0.2896,0,-0.2639,-0.2646,-0.2737,-0.2748,-0.2784,-0.283,-0.286,-0.2987,-0.3021,-0.3144,-0.314,-0.3167,-0.3148,-0.3067,-0.2995,-0.29,-0.2914,-0.2728,-0.2736,-0.2697,-0.2725,-0.2756,-0.2703,-0.2563,-0.2559,-0.2555,-0.2551,0,-0.2516,-0.2548,-0.2577,-0.2606,-0.2634,-0.2676,-0.2734,-0.2764,-0.2903,-0.2946,-0.2988,-0.2989,-0.2949,-0.2815,-0.272,-0.2653,-0.2653,-0.2642,-0.2641,-0.2477,-0.2466,-0.2394,-0.2654,-0.2516,-0.252,-0.2522,-0.2524,-0.2526,-0.2399,-0.2387,-0.2426,-0.2436,-0.247,-0.2487,-0.2471,-0.2559,-0.2596,-0.2636,-0.2751,-0.2722,-0.2667,-0.252,-0.2449,-0.2298,-0.2389,-0.2235,-0.2287,-0.2326,-0.2238,-0.2404,-0.2229,-0.2231,-0.2232,-0.2234,-0.2235,0,-0.2243,-0.2251,-0.2253,-0.2266,-0.2232,-0.2311,-0.235,-0.2313,-0.2295,-0.2389,-0.2397,-0.2384,-0.2242,-0.2216,-0.2087,-0.1983,-0.1943,-0.1944,-0.1968,-0.1932,-0.209,-0.2061,-0.1793,-0.1793,-0.1793,-0.1793,-0.1793,-0.1793,-0.2163,-0.2111,-0.2117,-0.2016,-0.2016,-0.1926,-0.1909,-0.1889,-0.1922,-0.1912,-0.1961,-0.205,-0.2048,-0.2122,-0.1958,-0.1849,-0.1815,-0.1746,-0.1797,-0.1935,-0.1968,-0.1999,-0.1977,-0.1695,-0.1695,-0.155,-0.155,-0.1549]},{"header":{"parameterUnit":"m.s-1","parameterCategory":2,"la1":30.2991,"la2":30.254,"lo1":-89.0895,"lo2":-89.0444,"dy":0.0017,"dx":0.0017,"nx":28,"ny":28,"refTime":"2024-12-31T09:00:00:Z","depth":"0","parameterNumber":3,"parameterNumberName":"V-component_of_CURRENTS"},"data":[0,0,0,0,0,0,0,0,0,0,0,0,0,0,0,0,0,0,0,0,0,0,0,0,0,0,0,0,0,0,0,0,0,0,0,0,0,0,0,0,0,0,0,0,0,0,0,0,0,0,0,0,0,0,0,0,0,0,-0.0409,-0.0408,0,-0.031,-0.0309,-0.0308,-0.0236,-0.0236,-0.0235,-0.0235,-0.0102,-0.0099,-0.0096,0,0,0,0,0,0,0,0,0,0,0,0,0,-0.0482,-0.0482,-0.0409,-0.0408,-0.0407,-0.031,-0.0309,-0.0307,-0.0236,-0.0236,-0.0235,-0.0234,-0.0103,-0.0099,-0.0096,0,0,0,0,0,0,0,0,0,0,0,0,0,-0.0423,-0.0481,-0.0409,-0.036,-0.0355,-0.031,-0.0309,-0.0307,-0.0236,-0.0235,-0.0235,-0.0234,-0.0104,-0.01,-0.0095,-0.0082,0,0,-0.0081,-0.0079,0,0,0,0,0,0,0,0,-0.0426,-0.042,-0.0369,-0.0364,-0.0358,-0.0285,-0.0286,-0.023,-0.0236,-0.028,-0.0235,-0.0234,-0.0161,-0.0152,-0.0134,-0.0076,-0.007,-0.0081,-0.0078,-0.0076,-0.0075,0,0,0,0,0,0,0,-0.0431,-0.0424,-0.0369,-0.0368,-0.0361,-0.0325,-0.0316,-0.0275,-0.0225,-0.0276,-0.0271,-0.0262,-0.0158,-0.0139,-0.013,-0.0068,-0.0081,-0.0077,-0.0074,-0.0072,0.0027,0.0027,0,0,0,0,0,0,-0.0449,-0.0428,-0.0372,-0.0366,-0.0392,-0.0324,-0.0314,-0.0309,-0.0226,-0.0213,-0.0263,-0.0259,-0.0147,-0.0136,-0.0125,-0.0103,-0.0076,-0.0072,-0.0069,0.0027,0.0027,0.0027,0,0,0,0,0,0,-0.0451,-0.0445,-0.0376,-0.0395,-0.0384,-0.0324,-0.0318,-0.0307,-0.0288,-0.0216,-0.0202,-0.0255,-0.0146,-0.0132,-0.0092,-0.0097,-0.007,-0.0065,0.0028,0.0027,0.0027,-0.0058,0,0,0,0,0,0,-0.0453,-0.0446,-0.0451,-0.0397,-0.0384,-0.0362,-0.0319,-0.0306,-0.0283,-0.0278,-0.0205,-0.0192,-0.0144,-0.01,-0.0088,-0.009,-0.0062,0.0028,0.0028,0.0027,-0.0055,-0.0061,-0.0066,0,0,0,0,0,-0.0456,-0.0471,-0.0452,-0.0445,-0.0391,-0.0363,-0.0353,-0.0307,-0.0284,-0.0285,-0.0231,-0.0194,-0.0092,-0.0096,-0.0082,-0.0083,0.0028,0.0028,0.0027,-0.0053,-0.006,-0.0066,0,0,0,0,0,0,-0.0505,-0.0464,-0.0441,-0.0442,-0.0409,-0.0351,-0.0348,-0.0315,-0.0273,-0.0267,-0.0197,-0.0181,-0.0148,-0.0105,-0.0111,-0.0054,-0.0025,-0.0023,-0.0091,-0.0097,-0.0103,-0.0114,-0.0058,0,0,0,0,0,-0.0519,-0.0519,-0.0471,-0.0472,-0.046,-0.0405,-0.0388,-0.0358,-0.0313,-0.0293,-0.0241,-0.0185,-0.0139,-0.0111,-0.0067,-0.0037,0.0017,-0.0027,-0.0033,-0.0038,-0.0037,0.0036,0.0037,0.0026,0.0026,0.0026,0,0,-0.0536,-0.0515,-0.0513,-0.0482,-0.0452,-0.0447,-0.0393,-0.0376,-0.0365,-0.0286,-0.0259,-0.0207,-0.0137,-0.0104,-0.0085,-0.0067,-0.0007,-0.0038,-0.0043,-0.0039,0.0036,0.0037,0.0038,0.0026,0.0026,0.0026,0,0,-0.058,-0.0555,-0.0572,-0.0552,-0.0518,-0.0483,-0.0484,-0.0431,-0.0402,-0.0372,-0.031,-0.0261,-0.0195,-0.014,-0.0104,-0.0113,-0.0044,-0.01,-0.0131,-0.0062,-0.006,-0.0058,0.0006,0.0014,-0.0098,-0.0098,-0.0098,0,-0.0604,-0.0615,-0.0573,-0.0584,-0.0573,-0.0507,-0.052,-0.0483,-0.0423,-0.0396,-0.0377,-0.0262,-0.021,-0.0149,-0.0153,-0.0126,-0.0076,-0.0115,-0.007,-0.0066,-0.0063,0.0003,0.0013,-0.0102,-0.0101,-0.0101,-0.0101,0,-0.066,-0.0666,-0.0676,-0.0666,-0.0649,-0.0651,-0.0596,-0.0572,-0.0527,-0.0477,-0.0414,-0.0335,-0.0263,-0.024,-0.0199,-0.0146,-0.0116,-0.0092,-0.0057,-0.0067,0.0003,0.0015,-0.0108,-0.0106,-0.0105,-0.0104,0,0,-0.0715,-0.0717,-0.0719,-0.0728,-0.0693,-0.0684,-0.0666,-0.0621,-0.0597,-0.0529,-0.0487,-0.0404,-0.0347,-0.0303,-0.0237,-0.0174,-0.0113,-0.013,-0.0124,-0.0074,0.0043,0.0094,0.0113,-0.0079,-0.0078,-0.0076,0.0079,0,-0.0769,-0.0818,-0.0794,-0.0823,-0.084,-0.0777,-0.0763,-0.071,-0.0647,-0.059,-0.0486,-0.0426,-0.0373,-0.0338,-0.0267,-0.015,-0.0083,-0.0157,0.0053,0.0059,0.01,0.0128,0.0167,0.0311,0.0092,0.0094,0.0095,0,-0.0829,-0.0853,-0.0901,-0.0899,-0.0898,-0.0901,-0.0854,-0.0831,-0.0729,-0.0677,-0.0588,-0.0501,-0.0393,-0.0353,-0.0155,-0.0204,-0.0093,0.0,0.0009,0.0097,0.0133,0.029,0.0343,0.0511,0.0115,0.0114,0.0112,0,-0.0893,-0.0921,-0.0963,-0.0965,-0.0954,-0.0954,-0.0936,-0.0858,-0.0831,-0.0725,-0.0683,-0.0543,-0.0466,-0.0312,-0.0119,-0.0136,0.0106,0.011,0.0265,0.027,0.0366,0.0376,0.0602,0.025,0.0249,0.0249,0.0248,0,-0.0959,-0.0988,-0.0999,-0.1023,-0.106,-0.1021,-0.1025,-0.0981,-0.0907,-0.087,-0.0734,-0.0662,-0.0452,-0.0285,-0.0122,0.012,0.0111,0.0273,0.032,0.0337,0.0342,0.0543,0.0599,0.0255,0.0253,0.0252,0.0251,0,-0.1019,-0.1028,-0.1078,-0.109,-0.1095,-0.1118,-0.1102,-0.1094,-0.1014,-0.096,-0.0929,-0.074,-0.0517,-0.0288,-0.0019,0.0121,0.0458,0.0429,0.0431,0.0476,0.075,0.0799,0.1074,0.1175,0.0614,0.0617,0.0619,0,-0.1053,-0.1088,-0.1136,-0.1171,-0.1182,-0.1205,-0.1216,-0.1159,-0.114,-0.0999,-0.0972,-0.0749,-0.0568,-0.0145,0.0147,0.0462,0.0586,0.0668,0.0642,0.0791,0.088,0.0913,0.0979,0.0737,0.074,0.0742,0.0744,0,-0.1111,-0.1129,-0.117,-0.1251,-0.1286,-0.1317,-0.1323,-0.1329,-0.1243,-0.1169,-0.1019,-0.086,-0.0437,-0.0054,0.0355,0.0545,0.0795,0.0723,0.0892,0.1013,0.1053,0.1163,0.0601,0.0764,0.0762,0.0761,0.076,0.0759,-0.1141,-0.119,-0.1249,-0.1318,-0.1367,-0.141,-0.1428,-0.1407,-0.1365,-0.123,-0.1068,-0.0787,-0.0235,0.0357,0.0577,0.1034,0.0984,0.1159,0.1211,0.1236,0.1323,0.0798,0.1,0.0999,0.0999,0.0998,0.0998,0,-0.117,-0.1231,-0.1309,-0.1389,-0.1449,-0.1455,-0.1478,-0.146,-0.1405,-0.1234,-0.105,-0.044,0.011,0.0616,0.1257,0.1503,0.1554,0.1626,0.169,0.1738,0.1303,0.1297,0.1555,0.1555,0.1554,0.1554,0.1554,0.1554,-0.1187,-0.1269,-0.1316,-0.143,-0.1484,-0.1526,-0.1534,-0.1486,-0.1365,-0.1055,-0.0719,-0.0443,0.0292,0.1309,0.1897,0.1958,0.2153,0.2146,0.2248,0.1945,0.1905,0.1866,0.1878,0.2253,0.2254,0.2671,0.2676,0.2679]}],[{"header":{"parameterUnit":"m.s-1","parameterCategory":2,"la1":30.2991,"la2":30.254,"lo1":-89.0895,"lo2":-89.0444,"dy":0.0017,"dx":0.0017,"nx":28,"ny":28,"refTime":"2024-12-31T09:00:00:Z","depth":"2","parameterNumber":2,"parameterNumberName":"U-component_of_CURRENTS"},"data":[0,0,0,0,0,0,0,0,0,0,0,0,0,0,0,0,0,0,0,0,0,0,0,0,0,0,0,0,0,0,0,0,0,0,0,0,0,0,0,0,0,0,0,0,0,0,0,0,0,0,0,0,0,0,0,0,0,0,-0.2839,-0.2839,0,-0.289,-0.2891,-0.2891,-0.2882,-0.2882,-0.2881,-0.288,-0.2874,-0.2874,-0.2875,0,0,0,0,0,0,0,0,0,0,0,0,0,-0.2745,-0.2746,-0.2839,-0.2839,-0.284,-0.289,-0.2891,-0.2891,-0.2882,-0.2882,-0.2881,-0.288,-0.2874,-0.2874,-0.2875,0,0,0,0,0,0,0,0,0,0,0,0,0,-0.2787,-0.2747,-0.2838,-0.2844,-0.2845,-0.289,-0.2891,-0.2891,-0.2883,-0.2882,-0.2881,-0.288,-0.2874,-0.2874,-0.2875,-0.2899,0,0,-0.2877,-0.2877,0,0,0,0,0,0,0,0,-0.2785,-0.279,-0.2842,-0.2844,-0.2845,-0.2881,-0.2856,-0.2892,-0.2883,-0.2866,-0.288,-0.2879,-0.2873,-0.2874,-0.2883,-0.2898,-0.2898,-0.2877,-0.2877,-0.2878,-0.2878,0,0,0,0,0,0,0,-0.2782,-0.2788,-0.2856,-0.2843,-0.2845,-0.2849,-0.2853,-0.2863,-0.2871,-0.2867,-0.2867,-0.2878,-0.2873,-0.2882,-0.2883,-0.2898,-0.2877,-0.2877,-0.2878,-0.2878,-0.2921,-0.2922,0,0,0,0,0,0,-0.2782,-0.2786,-0.2855,-0.2858,-0.2815,-0.2851,-0.2856,-0.2868,-0.2872,-0.2873,-0.2878,-0.2877,-0.2882,-0.2882,-0.2882,-0.2904,-0.2878,-0.2878,-0.2879,-0.2921,-0.2922,-0.2922,0,0,0,0,0,0,-0.278,-0.2788,-0.2853,-0.2825,-0.2834,-0.2854,-0.2868,-0.287,-0.2881,-0.2882,-0.2881,-0.2887,-0.2881,-0.2881,-0.2895,-0.2903,-0.2878,-0.2879,-0.292,-0.2921,-0.2922,-0.2951,0,0,0,0,0,0,-0.2777,-0.2787,-0.279,-0.2825,-0.2835,-0.2881,-0.2869,-0.2872,-0.289,-0.2888,-0.2889,-0.2888,-0.288,-0.2894,-0.2896,-0.2904,-0.288,-0.2919,-0.292,-0.2922,-0.2949,-0.2953,-0.2956,0,0,0,0,0,-0.2773,-0.2783,-0.279,-0.2798,-0.2841,-0.2882,-0.2887,-0.2896,-0.2891,-0.29,-0.2902,-0.2888,-0.2904,-0.2896,-0.2897,-0.2906,-0.2918,-0.292,-0.2922,-0.2947,-0.2952,-0.2956,0,0,0,0,0,0,-0.2738,-0.2785,-0.2792,-0.2814,-0.2846,-0.2881,-0.2889,-0.2902,-0.2912,-0.2908,-0.2903,-0.2902,-0.2918,-0.2911,-0.2903,-0.2923,-0.2907,-0.2909,-0.2926,-0.293,-0.2934,-0.2927,-0.288,0,0,0,0,0,-0.2735,-0.2754,-0.2801,-0.2814,-0.2833,-0.2863,-0.2878,-0.2893,-0.2911,-0.2915,-0.292,-0.2921,-0.2929,-0.2928,-0.2936,-0.2949,-0.2931,-0.2954,-0.2957,-0.296,-0.2957,-0.2952,-0.2955,-0.2928,-0.2928,-0.2928,0,0,-0.2722,-0.2751,-0.2759,-0.2808,-0.283,-0.2863,-0.2869,-0.2899,-0.292,-0.2913,-0.2934,-0.294,-0.2937,-0.2952,-0.2957,-0.2945,-0.2957,-0.2963,-0.2965,-0.2959,-0.2954,-0.2957,-0.2959,-0.2929,-0.2929,-0.2929,0,0,-0.2713,-0.2736,-0.2753,-0.2787,-0.2833,-0.2859,-0.2871,-0.2917,-0.2928,-0.2959,-0.2956,-0.2966,-0.2981,-0.298,-0.2979,-0.3008,-0.2982,-0.3011,-0.3017,-0.3014,-0.3016,-0.3017,-0.2987,-0.2985,-0.3006,-0.3006,-0.3006,0,-0.2693,-0.2726,-0.2762,-0.2795,-0.282,-0.2859,-0.2888,-0.2914,-0.2956,-0.2969,-0.2965,-0.2995,-0.2991,-0.3006,-0.3011,-0.3015,-0.3001,-0.3001,-0.3018,-0.3019,-0.302,-0.2988,-0.2986,-0.3008,-0.3008,-0.3007,-0.3007,0,-0.2704,-0.2733,-0.2747,-0.28,-0.2833,-0.2864,-0.2915,-0.2945,-0.2965,-0.2989,-0.3018,-0.3023,-0.3034,-0.3038,-0.3031,-0.3041,-0.3023,-0.3028,-0.3005,-0.3024,-0.299,-0.2987,-0.301,-0.3009,-0.3009,-0.3009,0,0,-0.265,-0.2738,-0.274,-0.2767,-0.2841,-0.2867,-0.2914,-0.2963,-0.2984,-0.3021,-0.3041,-0.306,-0.3064,-0.3064,-0.3063,-0.3057,-0.3045,-0.3042,-0.3041,-0.3007,-0.3017,-0.293,-0.2919,-0.3055,-0.3055,-0.3055,-0.2986,0,-0.2643,-0.2696,-0.2748,-0.2791,-0.2822,-0.2883,-0.2921,-0.297,-0.3005,-0.3035,-0.3053,-0.307,-0.3074,-0.3075,-0.3075,-0.3058,-0.3041,-0.3062,-0.3007,-0.3005,-0.2922,-0.2914,-0.2702,-0.2616,-0.2983,-0.2982,-0.2982,0,-0.263,-0.2671,-0.2715,-0.2791,-0.281,-0.2841,-0.2904,-0.2946,-0.3005,-0.3033,-0.3065,-0.3081,-0.3088,-0.3083,-0.3065,-0.3079,-0.3046,-0.3028,-0.3025,-0.2931,-0.2913,-0.2659,-0.2598,-0.2977,-0.2978,-0.2978,-0.2978,0,-0.2559,-0.2641,-0.2671,-0.2698,-0.2793,-0.2818,-0.2863,-0.2934,-0.2968,-0.3024,-0.3047,-0.3074,-0.3077,-0.3063,-0.3036,-0.3048,-0.2999,-0.3011,-0.2899,-0.2892,-0.2692,-0.2667,-0.2983,-0.2983,-0.2983,-0.2983,-0.2983,0,-0.2524,-0.2543,-0.2637,-0.2652,-0.2682,-0.2767,-0.2802,-0.2858,-0.293,-0.2954,-0.303,-0.3044,-0.3073,-0.3059,-0.303,-0.2948,-0.2994,-0.2887,-0.2868,-0.2695,-0.2672,-0.2976,-0.2977,-0.2981,-0.2981,-0.2982,-0.2982,0,-0.2428,-0.2498,-0.2529,-0.2621,-0.2647,-0.2661,-0.2757,-0.2779,-0.2872,-0.2904,-0.292,-0.3008,-0.299,-0.2997,-0.2961,-0.2921,-0.2862,-0.2818,-0.2601,-0.2558,-0.2756,-0.2759,-0.2682,-0.2678,-0.2675,-0.2673,-0.267,0,-0.2379,-0.2386,-0.2472,-0.2484,-0.2519,-0.2567,-0.2595,-0.2717,-0.2747,-0.2866,-0.2861,-0.2896,-0.2873,-0.2809,-0.2741,-0.2657,-0.276,-0.2424,-0.2411,-0.2735,-0.2725,-0.2733,-0.2739,-0.215,-0.2144,-0.2139,-0.2135,0,-0.2269,-0.2301,-0.2328,-0.2356,-0.2383,-0.2422,-0.2477,-0.25,-0.263,-0.2666,-0.2699,-0.2697,-0.2666,-0.2497,-0.242,-0.235,-0.2425,-0.2317,-0.2696,-0.2272,-0.2231,-0.2223,-0.2247,-0.2089,-0.2094,-0.2097,-0.2099,-0.2101,-0.2167,-0.2156,-0.2192,-0.2201,-0.2234,-0.2243,-0.2223,-0.2297,-0.2321,-0.2342,-0.2452,-0.2386,-0.2375,-0.2149,-0.2038,-0.1965,-0.2134,-0.2043,-0.2059,-0.2081,-0.2045,-0.2002,-0.1808,-0.1811,-0.1813,-0.1815,-0.1817,0,-0.2027,-0.2032,-0.2033,-0.2043,-0.2009,-0.2084,-0.2108,-0.2062,-0.2024,-0.2081,-0.2076,-0.1871,-0.1762,-0.1769,-0.1583,-0.1547,-0.1536,-0.1484,-0.1474,-0.1519,-0.1559,-0.1498,-0.1115,-0.1113,-0.1111,-0.111,0,0,-0.1956,-0.1906,-0.1905,-0.1807,-0.1808,-0.1719,-0.1694,-0.1653,-0.1655,-0.158,-0.1552,-0.1676,-0.1717,-0.1422,-0.1345,-0.1206,-0.135,-0.1141,-0.1702,-0.1734,-0.1772,-0.1874,-0.183,0,0,0,0,0]},{"header":{"parameterUnit":"m.s-1","parameterCategory":2,"la1":30.2991,"la2":30.254,"lo1":-89.0895,"lo2":-89.0444,"dy":0.0017,"dx":0.0017,"nx":28,"ny":28,"refTime":"2024-12-31T09:00:00:Z","depth":"2","parameterNumber":3,"parameterNumberName":"V-component_of_CURRENTS"},"data":[0,0,0,0,0,0,0,0,0,0,0,0,0,0,0,0,0,0,0,0,0,0,0,0,0,0,0,0,0,0,0,0,0,0,0,0,0,0,0,0,0,0,0,0,0,0,0,0,0,0,0,0,0,0,0,0,0,0,-0.0248,-0.0247,0,-0.0158,-0.0157,-0.0155,-0.0092,-0.0091,-0.0091,-0.009,0.0028,0.0031,0.0034,0,0,0,0,0,0,0,0,0,0,0,0,0,-0.031,-0.031,-0.0248,-0.0247,-0.0246,-0.0158,-0.0156,-0.0155,-0.0092,-0.0091,-0.0091,-0.009,0.0027,0.0031,0.0034,0,0,0,0,0,0,0,0,0,0,0,0,0,-0.0257,-0.0309,-0.0248,-0.0205,-0.02,-0.0158,-0.0156,-0.0155,-0.0092,-0.0091,-0.009,-0.009,0.0026,0.003,0.0034,0.0048,0,0,0.0047,0.0049,0,0,0,0,0,0,0,0,-0.026,-0.0255,-0.0212,-0.0208,-0.0202,-0.0136,-0.0135,-0.0086,-0.0092,-0.0132,-0.009,-0.009,-0.0025,-0.0017,-0.0,0.0054,0.0059,0.0048,0.005,0.0052,0.0053,0,0,0,0,0,0,0,-0.0264,-0.0258,-0.0211,-0.0211,-0.0205,-0.017,-0.0163,-0.0125,-0.0082,-0.0128,-0.0124,-0.0115,-0.0022,-0.0004,0.0003,0.006,0.0047,0.0051,0.0054,0.0055,0.0152,0.0152,0,0,0,0,0,0,-0.0281,-0.0262,-0.0214,-0.0209,-0.0231,-0.017,-0.0161,-0.0157,-0.0082,-0.0071,-0.0116,-0.0113,-0.0012,-0.0002,0.0008,0.0032,0.0052,0.0056,0.0058,0.0151,0.0152,0.0152,0,0,0,0,0,0,-0.0283,-0.0278,-0.0218,-0.0234,-0.0224,-0.017,-0.0166,-0.0156,-0.0138,-0.0074,-0.0061,-0.0109,-0.0011,0.0002,0.0038,0.0037,0.0058,0.0061,0.0151,0.0151,0.0152,0.0078,0,0,0,0,0,0,-0.0285,-0.0279,-0.0284,-0.0235,-0.0223,-0.0204,-0.0166,-0.0154,-0.0135,-0.013,-0.0064,-0.0052,-0.0009,0.0032,0.0043,0.0043,0.0065,0.0151,0.0151,0.0152,0.008,0.0076,0.0072,0,0,0,0,0,-0.0288,-0.0302,-0.0285,-0.0279,-0.0232,-0.0205,-0.0196,-0.0154,-0.0135,-0.0135,-0.0087,-0.0054,0.0041,0.0035,0.0048,0.0049,0.0151,0.0151,0.0152,0.0082,0.0077,0.0072,0,0,0,0,0,0,-0.0331,-0.0295,-0.0276,-0.0278,-0.0248,-0.0195,-0.0192,-0.0162,-0.0124,-0.0119,-0.0056,-0.0041,-0.001,0.0029,0.0022,0.0078,0.0102,0.0105,0.0046,0.0041,0.0036,0.0024,0.0068,0,0,0,0,0,-0.0344,-0.0345,-0.0302,-0.0304,-0.0293,-0.0244,-0.0228,-0.0201,-0.016,-0.0142,-0.0095,-0.0043,0.0001,0.0027,0.0067,0.0097,0.0142,0.0108,0.0103,0.0099,0.0098,0.0164,0.0165,0.0152,0.0152,0.0152,0,0,-0.036,-0.0342,-0.0341,-0.0313,-0.0286,-0.028,-0.0233,-0.0217,-0.0206,-0.0136,-0.011,-0.0062,0.0003,0.0036,0.0055,0.007,0.0126,0.0099,0.0095,0.0097,0.0164,0.0165,0.0166,0.0152,0.0152,0.0152,0,0,-0.0399,-0.0379,-0.0394,-0.0375,-0.0345,-0.0312,-0.0313,-0.0265,-0.0238,-0.0209,-0.0153,-0.0106,-0.0045,0.0007,0.0041,0.0038,0.0096,0.005,0.0023,0.0086,0.0087,0.0089,0.0143,0.015,0.0053,0.0053,0.0052,0,-0.0421,-0.0431,-0.0394,-0.0403,-0.0393,-0.0333,-0.0344,-0.0309,-0.0254,-0.023,-0.0213,-0.0106,-0.0056,0.0003,0.0002,0.0028,0.0069,0.0035,0.0079,0.0082,0.0085,0.014,0.0149,0.0049,0.0049,0.005,0.005,0,-0.0468,-0.0475,-0.0483,-0.0473,-0.0457,-0.0458,-0.0407,-0.0385,-0.0346,-0.03,-0.0241,-0.0166,-0.01,-0.0075,-0.0037,0.0013,0.0036,0.0059,0.0088,0.0082,0.014,0.0151,0.0044,0.0045,0.0046,0.0047,0,0,-0.052,-0.0519,-0.0521,-0.053,-0.0496,-0.0489,-0.047,-0.0429,-0.0411,-0.0345,-0.0309,-0.0224,-0.0175,-0.0133,-0.0071,-0.0011,0.0044,0.0027,0.0032,0.0072,0.0178,0.0211,0.0226,0.0074,0.0076,0.0077,0.0207,0,-0.0568,-0.0609,-0.0586,-0.0613,-0.0628,-0.0571,-0.0557,-0.051,-0.0454,-0.0404,-0.0305,-0.0251,-0.0197,-0.0165,-0.0098,0.0007,0.007,0.0007,0.0186,0.0191,0.0215,0.0239,0.0204,0.0319,0.0218,0.022,0.0221,0,-0.062,-0.0641,-0.0685,-0.0685,-0.0685,-0.0687,-0.0649,-0.0627,-0.0536,-0.049,-0.0409,-0.0328,-0.0227,-0.0184,-0.0005,-0.0049,0.0055,0.0141,0.0148,0.0213,0.0244,0.0313,0.0343,0.024,0.0238,0.0237,0.0236,0,-0.0681,-0.0705,-0.0745,-0.0746,-0.0737,-0.0739,-0.0724,-0.0656,-0.0635,-0.0539,-0.0507,-0.0375,-0.0306,-0.0162,0.0016,0.0005,0.0218,0.0228,0.036,0.0363,0.0388,0.0391,0.0359,0.0359,0.0358,0.0358,0.0358,0,-0.0741,-0.0769,-0.078,-0.0803,-0.0842,-0.0805,-0.0816,-0.0777,-0.0714,-0.0688,-0.0558,-0.0497,-0.0297,-0.0147,0.0006,0.0219,0.0215,0.0364,0.0405,0.0361,0.036,0.0333,0.0328,0.0363,0.0362,0.0361,0.036,0,-0.0798,-0.0806,-0.0854,-0.0868,-0.0875,-0.0901,-0.0894,-0.0892,-0.0823,-0.0783,-0.0755,-0.0582,-0.0384,-0.017,0.0077,0.0207,0.0406,0.0485,0.0417,0.0447,0.0508,0.0498,0.0636,0.0638,0.064,0.0642,0.0643,0,-0.0831,-0.0863,-0.0913,-0.0949,-0.096,-0.0988,-0.1004,-0.0956,-0.0945,-0.0828,-0.0808,-0.0611,-0.0451,-0.0072,0.0191,0.0475,0.0478,0.0602,0.0581,0.0514,0.054,0.0527,0.0514,0.0584,0.0585,0.0585,0.0586,0,-0.0889,-0.0906,-0.0946,-0.1028,-0.1066,-0.1101,-0.1114,-0.1124,-0.1053,-0.0992,-0.0866,-0.0727,-0.0359,-0.0045,0.032,0.0482,0.055,0.0625,0.0596,0.0512,0.0475,0.0496,0.0484,0.0592,0.0591,0.0591,0.059,0.059,-0.0921,-0.0969,-0.1027,-0.1097,-0.1148,-0.1193,-0.1214,-0.1199,-0.1168,-0.1054,-0.0919,-0.0678,-0.0375,0.0149,0.0406,0.0644,0.064,0.0699,0.0693,0.0688,0.0652,0.0619,0.0757,0.0757,0.0757,0.0758,0.0758,0,-0.0956,-0.1013,-0.109,-0.117,-0.123,-0.1239,-0.1266,-0.1248,-0.1202,-0.106,-0.0902,-0.0556,-0.0191,0.0128,0.0507,0.0731,0.0708,0.0764,0.0686,0.068,0.0674,0.0634,0.0736,0.0737,0.0737,0.0738,0,0,-0.0976,-0.1055,-0.1099,-0.121,-0.1266,-0.1311,-0.132,-0.1271,-0.1165,-0.1011,-0.0828,-0.0571,-0.018,0.008,0.0364,0.0562,0.0561,0.058,0.0576,0.0445,0.0436,0.0619,0.0548,0,0,0,0,0]}],[{"header":{"parameterUnit":"m.s-1","parameterCategory":2,"la1":30.2991,"la2":30.254,"lo1":-89.0895,"lo2":-89.0444,"dy":0.0017,"dx":0.0017,"nx":28,"ny":28,"refTime":"2024-12-31T09:00:00:Z","depth":"4","parameterNumber":2,"parameterNumberName":"U-component_of_CURRENTS"},"data":[0,0,0,0,0,0,0,0,0,0,0,0,0,0,0,0,0,0,0,0,0,0,0,0,0,0,0,0,0,0,0,0,0,0,0,0,0,0,0,0,0,0,0,0,0,0,0,0,0,0,0,0,0,0,0,0,0,0,-0.1993,-0.1994,0,-0.2075,-0.2075,-0.2076,-0.213,-0.213,-0.2131,-0.2131,-0.2211,-0.2213,-0.2214,0,0,0,0,0,0,0,0,0,0,0,0,0,-0.1885,-0.1887,-0.1993,-0.1994,-0.1995,-0.2075,-0.2075,-0.2076,-0.213,-0.213,-0.2131,-0.2132,-0.221,-0.2212,-0.2214,0,0,0,0,0,0,0,0,0,0,0,0,0,-0.1944,-0.1887,-0.1992,-0.2033,-0.2037,-0.2074,-0.2075,-0.2077,-0.213,-0.213,-0.2131,-0.2132,-0.221,-0.2212,-0.2215,-0.2214,0,0,-0.2222,-0.2223,0,0,0,0,0,0,0,0,-0.1941,-0.1948,-0.2025,-0.203,-0.2035,-0.2094,-0.2067,-0.2123,-0.2129,-0.2092,-0.2131,-0.2132,-0.2172,-0.2178,-0.2189,-0.2218,-0.2222,-0.2222,-0.2224,-0.2225,-0.2226,0,0,0,0,0,0,0,-0.1936,-0.1945,-0.2023,-0.2027,-0.2033,-0.2048,-0.2057,-0.2078,-0.2126,-0.2096,-0.21,-0.2112,-0.2175,-0.2187,-0.2191,-0.2223,-0.2222,-0.2224,-0.2226,-0.2227,-0.2334,-0.2336,0,0,0,0,0,0,-0.1929,-0.1941,-0.2021,-0.2026,-0.1991,-0.2049,-0.2059,-0.2073,-0.2126,-0.2135,-0.2111,-0.2114,-0.2182,-0.2188,-0.2194,-0.2272,-0.2225,-0.2227,-0.2229,-0.2333,-0.2335,-0.2336,0,0,0,0,0,0,-0.1927,-0.1936,-0.2017,-0.1986,-0.1998,-0.205,-0.2065,-0.2074,-0.2121,-0.2138,-0.2147,-0.2153,-0.2183,-0.2191,-0.2245,-0.2272,-0.2228,-0.2231,-0.2331,-0.2334,-0.2335,-0.2379,0,0,0,0,0,0,-0.1923,-0.1934,-0.1957,-0.1986,-0.2,-0.2061,-0.2065,-0.2075,-0.2126,-0.2132,-0.2176,-0.2182,-0.2184,-0.2241,-0.2247,-0.2275,-0.2232,-0.233,-0.2332,-0.2335,-0.2376,-0.2382,-0.2388,0,0,0,0,0,-0.1919,-0.194,-0.1957,-0.1968,-0.2024,-0.2062,-0.2071,-0.2108,-0.2128,-0.2153,-0.2186,-0.2183,-0.2261,-0.2244,-0.2251,-0.228,-0.2328,-0.2332,-0.2335,-0.2373,-0.2381,-0.2387,0,0,0,0,0,0,-0.1904,-0.1949,-0.1968,-0.2002,-0.2041,-0.2072,-0.2103,-0.2128,-0.2175,-0.2191,-0.2204,-0.2213,-0.2269,-0.2271,-0.2252,-0.2319,-0.2293,-0.2298,-0.232,-0.2327,-0.2333,-0.2322,-0.2235,0,0,0,0,0,-0.191,-0.1941,-0.1982,-0.2012,-0.2035,-0.2076,-0.2103,-0.2131,-0.2169,-0.2192,-0.2225,-0.2256,-0.2281,-0.2303,-0.2326,-0.2365,-0.2347,-0.2388,-0.2394,-0.2399,-0.2395,-0.2398,-0.2403,-0.2346,-0.2346,-0.2346,0,0,-0.1913,-0.1942,-0.1961,-0.2012,-0.2045,-0.2082,-0.2095,-0.2147,-0.2183,-0.2192,-0.2262,-0.2285,-0.2298,-0.2342,-0.2366,-0.2351,-0.2405,-0.2403,-0.2407,-0.24,-0.2401,-0.2407,-0.2411,-0.2348,-0.2348,-0.2348,0,0,-0.1921,-0.1961,-0.1988,-0.2025,-0.2084,-0.2109,-0.2132,-0.2189,-0.2225,-0.2286,-0.2299,-0.2339,-0.239,-0.2398,-0.2406,-0.246,-0.2439,-0.2476,-0.2497,-0.25,-0.2504,-0.2508,-0.2484,-0.2485,-0.2476,-0.2476,-0.2476,0,-0.1926,-0.1963,-0.2002,-0.2038,-0.2073,-0.2124,-0.2162,-0.2202,-0.2273,-0.2302,-0.2318,-0.2395,-0.241,-0.2445,-0.2463,-0.2473,-0.2463,-0.2467,-0.2506,-0.2509,-0.2512,-0.2487,-0.2488,-0.2479,-0.2478,-0.2478,-0.2478,0,-0.1945,-0.1991,-0.2012,-0.2073,-0.2114,-0.2158,-0.2214,-0.2269,-0.232,-0.2354,-0.2424,-0.2449,-0.2488,-0.2503,-0.25,-0.2533,-0.2515,-0.2514,-0.2484,-0.252,-0.2492,-0.2492,-0.2482,-0.2481,-0.2481,-0.248,0,0,-0.1909,-0.2007,-0.2018,-0.2054,-0.214,-0.217,-0.2241,-0.2306,-0.2348,-0.2421,-0.2467,-0.2517,-0.2538,-0.2547,-0.2557,-0.2561,-0.257,-0.255,-0.2549,-0.2518,-0.2563,-0.2398,-0.2381,-0.2581,-0.2582,-0.2582,-0.2532,0,-0.1915,-0.1981,-0.2033,-0.2102,-0.2139,-0.2213,-0.2267,-0.2335,-0.2395,-0.2453,-0.2492,-0.2541,-0.2552,-0.2575,-0.2586,-0.2578,-0.2574,-0.2583,-0.2539,-0.2537,-0.2379,-0.2376,-0.2584,-0.2531,-0.2531,-0.2531,-0.2531,0,-0.1908,-0.1957,-0.2024,-0.2117,-0.2141,-0.2193,-0.2286,-0.2343,-0.2428,-0.2475,-0.2534,-0.2565,-0.2599,-0.2598,-0.2603,-0.2612,-0.259,-0.2577,-0.2575,-0.2402,-0.237,-0.249,-0.253,-0.253,-0.253,-0.253,-0.253,0,-0.1842,-0.1945,-0.1999,-0.2033,-0.2145,-0.2195,-0.2258,-0.2351,-0.2397,-0.2488,-0.2524,-0.2578,-0.2603,-0.2603,-0.2589,-0.2601,-0.257,-0.258,-0.2407,-0.2395,-0.2542,-0.2539,-0.2568,-0.2568,-0.2568,-0.2568,-0.2568,0,-0.1804,-0.1851,-0.1979,-0.2006,-0.207,-0.2165,-0.2235,-0.2306,-0.2397,-0.2428,-0.2529,-0.2544,-0.2609,-0.2604,-0.2586,-0.248,-0.2568,-0.2393,-0.2367,-0.2561,-0.2561,-0.2541,-0.2538,-0.2566,-0.2567,-0.2567,-0.2567,0,-0.1711,-0.1803,-0.1867,-0.1997,-0.204,-0.2084,-0.2212,-0.2246,-0.2358,-0.2399,-0.2428,-0.252,-0.2506,-0.2534,-0.2517,-0.2448,-0.2381,-0.2323,-0.2509,-0.2497,-0.2205,-0.2206,-0.2115,-0.2108,-0.2103,-0.2098,-0.2095,0,-0.1664,-0.1691,-0.1834,-0.187,-0.1933,-0.2021,-0.2066,-0.2203,-0.2231,-0.2353,-0.234,-0.2388,-0.2422,-0.2259,-0.2319,-0.2252,-0.2234,-0.2187,-0.2208,-0.2173,-0.2157,-0.2167,-0.2175,-0.2086,-0.2085,-0.2083,-0.2082,0,-0.1562,-0.1631,-0.1685,-0.1758,-0.1822,-0.188,-0.1958,-0.1964,-0.2094,-0.2218,-0.2181,-0.2168,-0.2145,-0.213,-0.2089,-0.2052,-0.2212,-0.2131,-0.2142,-0.2162,-0.2137,-0.2129,-0.2143,-0.2063,-0.2066,-0.2068,-0.2069,0,-0.1484,-0.1494,-0.1574,-0.1618,-0.1693,-0.1701,-0.1772,-0.1794,-0.1843,-0.198,-0.1957,-0.2017,-0.2105,-0.2023,-0.1988,-0.1933,-0.1912,-0.1857,-0.1883,-0.1904,-0.1861,-0.1801,-0.158,0,0,0,0,0,-0.1393,-0.1388,-0.1421,-0.1465,-0.153,-0.1569,-0.1672,-0.1746,-0.1873,-0.1783,-0.1865,-0.1832,-0.1789,-0.1832,-0.1728,-0.19,-0.1924,-0.1773,-0.1876,-0.196,-0.1981,-0.1951,0,0,0,0,0,0,-0.1335,-0.1364,-0.1368,-0.1318,-0.1314,-0.1368,-0.1424,-0.1519,-0.1485,-0.1621,-0.1602,-0.171,-0.1693,-0.1803,-0.1684,-0.1694,-0.172,-0.1823,-0.1817,-0.1947,-0.1967,-0.1984,-0.1961,0,0,0,0,0]},{"header":{"parameterUnit":"m.s-1","parameterCategory":2,"la1":30.2991,"la2":30.254,"lo1":-89.0895,"lo2":-89.0444,"dy":0.0017,"dx":0.0017,"nx":28,"ny":28,"refTime":"2024-12-31T09:00:00:Z","depth":"4","parameterNumber":3,"parameterNumberName":"V-component_of_CURRENTS"},"data":[0,0,0,0,0,0,0,0,0,0,0,0,0,0,0,0,0,0,0,0,0,0,0,0,0,0,0,0,0,0,0,0,0,0,0,0,0,0,0,0,0,0,0,0,0,0,0,0,0,0,0,0,0,0,0,0,0,0,-0.0154,-0.0153,0,-0.0092,-0.0091,-0.009,-0.0046,-0.0045,-0.0045,-0.0045,0.0046,0.0048,0.005,0,0,0,0,0,0,0,0,0,0,0,0,0,-0.0188,-0.0188,-0.0154,-0.0153,-0.0152,-0.0092,-0.0091,-0.009,-0.0046,-0.0045,-0.0045,-0.0045,0.0045,0.0048,0.005,0,0,0,0,0,0,0,0,0,0,0,0,0,-0.0153,-0.0187,-0.0154,-0.0124,-0.0121,-0.0092,-0.0091,-0.009,-0.0046,-0.0045,-0.0045,-0.0045,0.0044,0.0047,0.0051,0.0062,0,0,0.006,0.0062,0,0,0,0,0,0,0,0,-0.0155,-0.0152,-0.0129,-0.0126,-0.0122,-0.0077,-0.007,-0.0038,-0.0046,-0.0073,-0.0045,-0.0044,0.0006,0.0013,0.0025,0.0067,0.0071,0.0061,0.0063,0.0064,0.0065,0,0,0,0,0,0,0,-0.0158,-0.0154,-0.0128,-0.0128,-0.0124,-0.0098,-0.0093,-0.0063,-0.0035,-0.0071,-0.0067,-0.0063,0.0009,0.0021,0.0027,0.0072,0.0061,0.0064,0.0066,0.0067,0.0147,0.0147,0,0,0,0,0,0,-0.0171,-0.0157,-0.013,-0.0126,-0.0139,-0.0098,-0.0092,-0.0091,-0.0036,-0.0028,-0.0063,-0.0061,0.0016,0.0023,0.0031,0.0052,0.0064,0.0067,0.0069,0.0147,0.0147,0.0147,0,0,0,0,0,0,-0.0172,-0.0169,-0.0133,-0.0141,-0.0134,-0.0098,-0.0097,-0.009,-0.0079,-0.0031,-0.0021,-0.0059,0.0016,0.0026,0.0055,0.0056,0.0069,0.0072,0.0147,0.0147,0.0147,0.0093,0,0,0,0,0,0,-0.0173,-0.017,-0.0176,-0.0142,-0.0134,-0.0124,-0.0097,-0.0089,-0.0077,-0.0073,-0.0024,-0.0015,0.0017,0.0049,0.0058,0.0061,0.0074,0.0147,0.0147,0.0147,0.0094,0.0091,0.0088,0,0,0,0,0,-0.0174,-0.0186,-0.0177,-0.0174,-0.0144,-0.0124,-0.0118,-0.009,-0.0077,-0.0077,-0.0042,-0.0017,0.0058,0.0052,0.0062,0.0065,0.0146,0.0147,0.0147,0.0096,0.0092,0.0088,0,0,0,0,0,0,-0.0204,-0.0182,-0.0171,-0.0175,-0.0155,-0.0118,-0.0117,-0.0096,-0.0068,-0.0065,-0.0018,-0.0006,0.0019,0.005,0.0042,0.0091,0.0108,0.011,0.0065,0.0062,0.0059,0.0046,0.0077,0,0,0,0,0,-0.0214,-0.0218,-0.019,-0.0194,-0.0187,-0.0154,-0.0143,-0.0125,-0.0094,-0.0082,-0.0047,-0.0006,0.0029,0.005,0.0082,0.0107,0.0141,0.0118,0.0115,0.0112,0.0109,0.0162,0.0163,0.0149,0.0149,0.0149,0,0,-0.0227,-0.0216,-0.0218,-0.0201,-0.0183,-0.018,-0.0146,-0.0137,-0.0129,-0.0076,-0.0058,-0.002,0.0032,0.006,0.0075,0.0086,0.0134,0.0112,0.0109,0.0108,0.0163,0.0164,0.0165,0.0149,0.0149,0.0149,0,0,-0.0255,-0.0245,-0.0258,-0.0246,-0.0227,-0.0205,-0.0206,-0.0172,-0.0153,-0.0131,-0.0088,-0.005,-0.0002,0.0041,0.0068,0.0069,0.0112,0.008,0.0059,0.011,0.0112,0.0114,0.0153,0.0159,0.0083,0.0083,0.0082,0,-0.0272,-0.0283,-0.0258,-0.0265,-0.0261,-0.022,-0.023,-0.0204,-0.0165,-0.0149,-0.0135,-0.0051,-0.0009,0.0039,0.0041,0.0063,0.0094,0.0065,0.0106,0.0108,0.0111,0.0152,0.0159,0.008,0.008,0.0081,0.0081,0,-0.0305,-0.0315,-0.0322,-0.0318,-0.0309,-0.0312,-0.0276,-0.0262,-0.0235,-0.0202,-0.0156,-0.0094,-0.0044,-0.002,0.0012,0.0055,0.007,0.009,0.011,0.0109,0.0152,0.016,0.0076,0.0077,0.0078,0.0079,0,0,-0.0341,-0.0346,-0.035,-0.0361,-0.0339,-0.0338,-0.0324,-0.0298,-0.029,-0.0236,-0.0214,-0.014,-0.0102,-0.0068,-0.0016,0.0035,0.0082,0.0066,0.007,0.0097,0.0187,0.0167,0.0175,0.0107,0.0109,0.011,0.0207,0,-0.0375,-0.0411,-0.0397,-0.0424,-0.0438,-0.0402,-0.0395,-0.0363,-0.0324,-0.0291,-0.0209,-0.017,-0.012,-0.0097,-0.0038,0.0047,0.0102,0.0053,0.0192,0.0196,0.0172,0.0183,0.0114,0.0214,0.0216,0.0217,0.0218,0,-0.0411,-0.0432,-0.0471,-0.0484,-0.0486,-0.0494,-0.0479,-0.0465,-0.0401,-0.0368,-0.0305,-0.0241,-0.0158,-0.0117,0.003,-0.0006,0.0084,0.0157,0.0162,0.0168,0.0191,0.022,0.0234,0.0232,0.0231,0.023,0.0229,0,-0.0453,-0.0482,-0.052,-0.0524,-0.0529,-0.054,-0.0537,-0.0493,-0.0484,-0.0416,-0.0396,-0.0289,-0.0235,-0.0113,0.0035,0.0032,0.02,0.0216,0.0288,0.0288,0.0301,0.0298,0.0329,0.0329,0.0329,0.0328,0.0328,0,-0.0491,-0.0522,-0.0549,-0.0571,-0.0616,-0.0595,-0.0621,-0.0597,-0.0559,-0.0547,-0.0444,-0.0401,-0.0231,-0.0112,0.002,0.0173,0.0191,0.0285,0.0313,0.0275,0.0268,0.0306,0.0303,0.0332,0.0331,0.033,0.033,0,-0.0525,-0.0542,-0.0593,-0.0624,-0.064,-0.0672,-0.0692,-0.0699,-0.0656,-0.0636,-0.0616,-0.0483,-0.033,-0.0154,0.0053,0.0145,0.0299,0.0357,0.0295,0.0318,0.0356,0.0348,0.0432,0.0432,0.0433,0.0433,0.0433,0,-0.0543,-0.0574,-0.0643,-0.0684,-0.0705,-0.0748,-0.0775,-0.0753,-0.0751,-0.068,-0.0665,-0.0522,-0.0415,-0.0135,0.0042,0.0286,0.0326,0.0394,0.0382,0.0348,0.0368,0.036,0.0352,0.0433,0.0433,0.0433,0.0433,0,-0.0576,-0.0606,-0.0649,-0.0739,-0.079,-0.0836,-0.0865,-0.0873,-0.0833,-0.0802,-0.0688,-0.0536,-0.036,-0.0141,0.0052,0.0228,0.0335,0.0396,0.0397,0.0387,0.035,0.0368,0.036,0.0433,0.0433,0.0433,0.0433,0,-0.0597,-0.0641,-0.0706,-0.0778,-0.085,-0.0895,-0.0909,-0.0887,-0.0872,-0.0783,-0.0748,-0.0545,-0.0424,-0.0169,0.0006,0.0173,0.0214,0.0257,0.0266,0.0267,0.0187,0.0115,0.0151,0,0,0,0,0,-0.0612,-0.0662,-0.0738,-0.0815,-0.0887,-0.0921,-0.0952,-0.0947,-0.0916,-0.0841,-0.0788,-0.0616,-0.0345,-0.0219,-0.0053,-0.0006,0.0226,0.019,0.0276,0.0436,0.0435,0.0367,0,0,0,0,0,0,-0.0623,-0.0697,-0.0737,-0.0826,-0.0881,-0.0947,-0.0966,-0.0947,-0.0887,-0.0834,-0.0678,-0.0593,-0.0319,-0.0434,-0.0053,-0.0004,0.0068,0.0324,0.0327,0.0436,0.0435,0.0435,0.0365,0,0,0,0,0]}]]